World > North America > United States > Texas

Wards Creek, Texas Regional Weather

Lat: 33.49N, Lon: 94.58W
Wx Zone: TXZ097Web Search

If you are on your PC, you can easily pass this page to your phone by scanning the QR Code near the bottom with your camera.

Feedback


°F Click to change Wards Creek hourly weather to Imperial units.Click to change Wards Creek hourly weather to Metric units. °C
Wards Creek Weather Map
UTC Time: 4/10/2021, 11:52
Your Time:

Wards Creek, TX Regional Weather

Expires:202104101200;;327737
ASUS44 KFWD 101115
RWRTX 
NORTH TEXAS HOURLY WEATHER ROUNDUP
NATIONAL WEATHER SERVICE FORT WORTH TX
600 AM CDT SAT APR 10 2021

NOTE: "FAIR" INDICATES FEW OR NO CLOUDS BELOW 12,000 FEET WITH NO
SIGNIFICANT WEATHER AND/OR OBSTRUCTIONS TO VISIBILITY.


TXZ095>097-106>112-122>126-135>138-148>153-164>167-101200-
EAST TEXAS
  
CITY           SKY/WX    TMP DP  RH WIND       PRES   REMARKS
PARIS          FAIR      51  46  83 NW14      29.80R                  
SULPHUR SPRNGS FAIR      54  48  79 N16G22    29.83R                  
MOUNT PLEASANT FAIR      54  49  81 NW13      29.78R                  
GILMER         FAIR      53  49  88 W3        29.80R                  
MINEOLA        FAIR      54  48  82 N10       29.81R                  
TYLER          FAIR      54  49  83 NW5       29.80R                  
LONGVIEW       FAIR      56  51  84 NW7       29.76R                  
MARSHALL       FAIR      56  53  87 N8        29.79R                  
ATHENS         FAIR      54  46  76 N9        29.80R                  
PALESTINE      CLOUDY    54  52  94 N8        29.81R                  
JACKSONVILLE   FAIR      54  51  91 N6        29.81R                  
HENDERSON      FAIR      56  51  84 NW5       29.80R                  
CENTER         CLOUDY    63  59  88 N5        29.76R                  
NACOGDOCHES    MOCLDY    59  56  89 NW12G20   29.76R                  
LUFKIN         CLOUDY    67  66  97 NW6       29.72S                  
$$

SUPPLEMENTAL OBSERVATIONS (NWS FORT WORTH AREA)
  
CITY           SKY/WX    TMP DP  RH WIND       PRES   REMARKS
CADDO GRASSLND   N/A     48  41  76 N5G17       N/A                   
LBJ GRASSLAND    N/A     48  36  61 NW5         N/A                   
GRANBURY         N/A     50  37  62 NW9         N/A                   
COMANCHE         N/A     48  34  57 N12         N/A                   
MCGREGOR         N/A     55  41  58 N12         N/A                   
TEMPLE           N/A     59  41  51 N20G26      N/A                   
LAKE LIMESTONE   N/A     57  46  67 N13G21      N/A                   
$$

SUPPLEMENTAL OBSERVATIONS (NWS NORMAN AREA)
  
CITY           SKY/WX    TMP DP  RH WIND       PRES   REMARKS
MILLERS CREEK    N/A     43  32  65 NW7         N/A  WCI  39          
$$

SUPPLEMENTAL OBSERVATIONS (NWS SAN ANGELO AREA)
  
CITY           SKY/WX    TMP DP  RH WIND       PRES   REMARKS
HAMBY            N/A     39  34  81 N2          N/A                   
IVIE RESERVOIR   N/A     52  32  46 N13         N/A                   
COLORADO BEND    N/A     54  37  54 N5G15       N/A                   
$$

SUPPLEMENTAL OBSERVATIONS (NWS SHREVEPORT AREA)
  
CITY           SKY/WX    TMP DP  RH WIND       PRES   REMARKS
TEXARKANA        N/A     57  55  94 NW2         N/A                   
CADDO LAKE       N/A     57  55  94 W1          N/A                   
LUFKIN           N/A     64  61  88 MISG        N/A                   
N SABINE NF      N/A     61  59  94 MISG        N/A                   
$$

SUPPLEMENTAL OBSERVATIONS ARE A COLLECTION OF AUTOMATED INSTRUMENTS
THAT ARE MAINTAINED BY A VARIETY OF FEDERAL AND STATE AGENCIES. 
CERTAIN ELEMENTS...SUCH AS HUMIDITY VALUES AND SUSTAINED WIND 
SPEEDS...MAY BE APPROXIMATED.

  

SKY/WX - Weather  TMP - Temperature  DP - Dew Point  RH - Relative Humidity
WIND - Wind Direction/Speed PRES - Barometric Pressure VSB - Visibility
WCI - Wind Chill Index E13G22 Wind - East Wind 13 mph/Gusts of 22 mph